Погода в Сынжерее

Молдова     47°38′05″N   28°08′32″E
темп.,
°C
ветер,
м/с
пор.,
м/с
влажн.,
%
обл.,
%
осадки,
мм/ч
давл.,
гПа
погр.,
м
13 июня, вс
вс1300:00+17юз117150 0.0 101111
03:00+16ю12803 0.4 100911
06:00+15ю228499 0.0 100718
09:00+18зюз4773100 0.0 1007468
12:00+16сз81280100 0.4 1009816
15:00+13сз81291100 3.1 1011785
18:00+14ссз51183100 0.6 1011739
21:00+14ссз41081100 0.6 1011364
14 июня, пн
пн1400:00+12сз51287100 0.0 1012416
03:00+10сз6129425 0.0 1012399
06:00+11ссз6886100 0.0 1012601
09:00+13сз5881100 0.0 1012821
12:00+18с786396 0.4 10121567
15:00+17с8107035 0.6 10131148
18:00+14ссз7108398 0.1 1014737
21:00+13сз71186100 0.1 1014692
15 июня, вт
вт1500:00+13сз6991100 0.1 1015505
03:00+13ссз479378 0.1 1014281
06:00+12сз259876 0.0 1015162
09:00+18с458150 0.0 1015596
12:00+22с566767 0.0 10141209
15:00+24с666136 1.7 10131487
18:00+22с79755 3.0 1012997
21:00+18с6148691 5.1 1012456
16 июня, ср
ср1600:00+17ссз7159067 0.8 1011486
03:00+15с7159334 3.8 1012497
06:00+15ссз7169163 2.8 1012511
09:00+18с8148192 3.8 1013671
12:00+22с8106999 0.3 10131259
15:00+22с8107365 1.6 10131269
18:00+22с7117661 3.2 10141117
21:00+19с5118598 3.3 1014338
17 июня, чт
чт1700:00+17с51192100 0.6 1015295
03:00+15ссз4109582 0.6 1016277
06:00+15ссз41195100 0.0 1016334
09:00+19с7107923 0.0 1016547
12:00+23с786898 0.0 10161273
15:00+22ссв687689 1.6 1016966
18:00+21ссв5982100 1.6 1017730
21:00+18ссв2392100 1.9 101759